Flag for China Weather past 2 weeks in Guilin, Guangxi, China

Now
86 °F

Scattered clouds.


Feels Like: 89 °F
Forecast: 69 / 88 °F
Wind: 3 mph from North

Location: Guilin Airport

Current Time: Aug 20, 2014 at 3:21:36 PM

Latest Report: Aug 20, 2014 at 2:00 PM


Visibility: N/A

Pressure: 29.80 "Hg

Humidity: 55%

Dew point: 68 °F

Location of GuilinLocation

Historic Weather in Guilin — Graph

°F

Guilin temperature yesterday

Maximum temperature yesterday: 75 °F (at 12:00 AM)
Minimum temperature yesterday: 72 °F (at 7:00 AM)
Average temperature yesterday: 74 °F

Past Weeks' High & Low Weather Summary

 TemperatureHumidityPressure
High95 °F (Aug 6, 2:00 PM)100% (Aug 6, 5:00 AM)29.89 "Hg (Aug 6, 5:00 AM)
Low72 °F (Aug 13, 6:00 AM)44% (Aug 6, 3:00 PM)29.50 "Hg (Aug 11, 3:00 PM)
Average80 °F82%29.69 "Hg
* Reported Aug 5 2:00 PM — Aug 20 2:00 PM, Guilin, Weather by CustomWeather, © 2014

Note: Actual official high and low records may vary slightly from our data, if they occured in-between our weather recording intervals... More about our weather records

Advertising

Guilin weather history for previous 24 hours

 ConditionsComfort  
Time TempWeatherWind HumidityBarometerVisibility
2:00 PM
Aug 20
86 °FScattered clouds.3 mph55%29.80 "HgN/A
1:00 PM84 °FScattered clouds.6 mph55%29.83 "HgN/A
12:00 PM84 °FScattered clouds.6 mph55%29.86 "HgN/A
11:00 AM82 °FScattered clouds.8 mph58%29.89 "HgN/A
10:00 AM77 °FScattered clouds.1 mph83%29.89 "Hg5 mi
9:00 AM73 °FMore clouds than sun.1 mph94%29.89 "Hg5 mi
8:00 AM73 °FPartly sunny.1 mph94%29.86 "Hg4 mi
7:00 AM72 °FFog.No wind94%29.86 "Hg3 mi
6:00 AM72 °FFog.1 mph94%29.83 "Hg2 mi
5:00 AM72 °FFog.1 mph94%29.83 "Hg3 mi
4:00 AM72 °FLow clouds.1 mph94%29.83 "Hg5 mi
3:00 AM72 °FLow clouds.No wind94%29.83 "Hg5 mi
2:00 AM72 °FOvercast.No wind94%29.83 "Hg5 mi
1:00 AM72 °FOvercast.No wind94%29.86 "Hg5 mi
12:00 AM72 °FMostly cloudy.1 mph94%29.86 "Hg5 mi
11:00 PM
Aug 19
72 °FMostly cloudy.1 mph94%29.86 "Hg4 mi
10:00 PM72 °FMostly cloudy.1 mph94%29.86 "Hg4 mi
9:00 PM72 °FMostly cloudy.No wind94%29.86 "HgN/A
8:00 PM73 °FMostly cloudy.1 mph89%29.83 "HgN/A
7:00 PM73 °FMostly cloudy.6 mph94%29.80 "Hg4 mi
6:00 PM73 °FLight rain. More clouds than sun.3 mph94%29.80 "Hg4 mi
5:00 PM73 °FLight rain. More clouds than sun.1 mph94%29.77 "HgN/A
4:00 PM75 °FLight rain. More clouds than sun.3 mph94%29.77 "HgN/A
3:00 PM75 °FLight rain. More clouds than sun.8 mph89%29.80 "HgN/A
Weather by CustomWeather, © 2014

See weather overviewHow to use our weather pages